Year,Month,Day,Hour,Minute,Value (Times are PST for temperature in C)
2010,07,11,00,00,16.40
2010,07,11,00,01,16.40
2010,07,11,00,02,16.40
2010,07,11,00,03,16.40
2010,07,11,00,04,16.40
2010,07,11,00,05,16.40
2010,07,11,00,06,16.40
2010,07,11,00,07,16.40
2010,07,11,00,08,16.40
2010,07,11,00,09,16.40
2010,07,11,00,10,16.40
2010,07,11,00,11,16.40
2010,07,11,00,12,16.40
2010,07,11,00,13,16.30
2010,07,11,00,14,16.30
2010,07,11,00,15,16.30
2010,07,11,00,16,16.30
2010,07,11,00,17,16.30
2010,07,11,00,18,16.30
2010,07,11,00,19,16.30
2010,07,11,00,20,16.30
2010,07,11,00,21,16.30
2010,07,11,00,22,16.30
2010,07,11,00,23,16.30
2010,07,11,00,24,16.30
2010,07,11,00,25,16.30
2010,07,11,00,26,16.20
2010,07,11,00,27,16.20
2010,07,11,00,28,16.20
2010,07,11,00,29,16.20
2010,07,11,00,30,16.20
2010,07,11,00,31,16.20
2010,07,11,00,32,16.20
2010,07,11,00,33,16.20
2010,07,11,00,34,16.20
2010,07,11,00,35,16.20
2010,07,11,00,36,16.20
2010,07,11,00,37,16.20
2010,07,11,00,38,16.20
2010,07,11,00,39,16.20
2010,07,11,00,40,16.20
2010,07,11,00,41,16.20
2010,07,11,00,42,16.20
2010,07,11,00,43,16.20
2010,07,11,00,44,16.20
2010,07,11,00,45,16.20
2010,07,11,00,46,16.20
2010,07,11,00,47,16.20
2010,07,11,00,48,16.20
2010,07,11,00,49,16.20
2010,07,11,00,50,16.20
2010,07,11,00,51,16.20
2010,07,11,00,52,16.20
2010,07,11,00,53,16.20
2010,07,11,00,54,16.20
2010,07,11,00,55,16.20
2010,07,11,00,56,16.20
2010,07,11,00,57,16.20
2010,07,11,00,58,16.20
2010,07,11,00,59,16.20
2010,07,11,01,00,16.20
2010,07,11,01,01,16.20
2010,07,11,01,02,16.20
2010,07,11,01,03,16.20
2010,07,11,01,04,16.20
2010,07,11,01,05,16.20
2010,07,11,01,06,16.20
2010,07,11,01,07,16.20
2010,07,11,01,08,16.20
2010,07,11,01,09,16.20
2010,07,11,01,10,16.20
2010,07,11,01,11,16.10
2010,07,11,01,12,16.10
2010,07,11,01,13,16.10
2010,07,11,01,14,16.10
2010,07,11,01,15,16.10
2010,07,11,01,16,16.10
2010,07,11,01,17,16.10
2010,07,11,01,18,16.10
2010,07,11,01,19,16.10
2010,07,11,01,20,16.10
2010,07,11,01,21,16.10
2010,07,11,01,22,16.10
2010,07,11,01,23,16.10
2010,07,11,01,24,16.00
2010,07,11,01,25,16.00
2010,07,11,01,26,16.00
2010,07,11,01,27,15.90
2010,07,11,01,28,15.90
2010,07,11,01,29,15.90
2010,07,11,01,30,15.90
2010,07,11,01,31,15.80
2010,07,11,01,32,15.80
2010,07,11,01,33,15.80
2010,07,11,01,34,15.80
2010,07,11,01,35,15.80
2010,07,11,01,36,15.70
2010,07,11,01,37,15.70
2010,07,11,01,38,15.70
2010,07,11,01,39,15.70
2010,07,11,01,40,15.70
2010,07,11,01,41,15.60
2010,07,11,01,42,15.60
2010,07,11,01,43,15.60
2010,07,11,01,44,15.60
2010,07,11,01,45,15.60
2010,07,11,01,46,15.60
2010,07,11,01,47,15.60
2010,07,11,01,48,15.60
2010,07,11,01,49,15.50
2010,07,11,01,50,15.50
2010,07,11,01,51,15.50
2010,07,11,01,52,15.50
2010,07,11,01,53,15.50
2010,07,11,01,54,15.50
2010,07,11,01,55,15.50
2010,07,11,01,56,15.50
2010,07,11,01,57,15.50
2010,07,11,01,58,15.50
2010,07,11,01,59,15.50
2010,07,11,02,00,15.40
2010,07,11,02,01,15.40
2010,07,11,02,02,15.40
2010,07,11,02,03,15.40
2010,07,11,02,04,15.40
2010,07,11,02,05,15.40
2010,07,11,02,06,15.40
2010,07,11,02,07,15.40
2010,07,11,02,08,15.40
2010,07,11,02,09,15.40
2010,07,11,02,10,15.40
2010,07,11,02,11,15.40
2010,07,11,02,12,15.30
2010,07,11,02,13,15.30
2010,07,11,02,14,15.30
2010,07,11,02,15,15.30
2010,07,11,02,16,15.30
2010,07,11,02,17,15.30
2010,07,11,02,18,15.30
2010,07,11,02,19,15.30
2010,07,11,02,20,15.30
2010,07,11,02,21,15.30
2010,07,11,02,22,15.30
2010,07,11,02,23,15.30
2010,07,11,02,24,15.30
2010,07,11,02,25,15.20
2010,07,11,02,26,15.20
2010,07,11,02,27,15.20
2010,07,11,02,28,15.20
2010,07,11,02,29,15.20
2010,07,11,02,30,15.20
2010,07,11,02,31,15.20
2010,07,11,02,32,15.20
2010,07,11,02,33,15.20
2010,07,11,02,34,15.20
2010,07,11,02,35,15.20
2010,07,11,02,36,15.20
2010,07,11,02,37,15.20
2010,07,11,02,38,15.20
2010,07,11,02,39,15.20
2010,07,11,02,40,15.20
2010,07,11,02,41,15.10
2010,07,11,02,42,15.10
2010,07,11,02,43,15.10
2010,07,11,02,44,15.10
2010,07,11,02,45,15.10
2010,07,11,02,46,15.10
2010,07,11,02,47,15.00
2010,07,11,02,48,15.00
2010,07,11,02,49,15.00
2010,07,11,02,50,15.00
2010,07,11,02,51,15.00
2010,07,11,02,52,15.00
2010,07,11,02,53,15.00
2010,07,11,02,54,15.00
2010,07,11,02,55,15.00
2010,07,11,02,56,15.00
2010,07,11,02,57,15.00
2010,07,11,02,58,15.00
2010,07,11,02,59,15.00
2010,07,11,03,00,15.00
2010,07,11,03,01,15.00
2010,07,11,03,02,15.00
2010,07,11,03,03,15.00
2010,07,11,03,04,15.00
2010,07,11,03,05,15.00
2010,07,11,03,06,15.00
2010,07,11,03,07,15.00
2010,07,11,03,08,15.00
2010,07,11,03,09,15.00
2010,07,11,03,10,15.00
2010,07,11,03,11,15.10
2010,07,11,03,12,15.10
2010,07,11,03,13,15.20
2010,07,11,03,14,15.20
2010,07,11,03,15,15.20
2010,07,11,03,16,15.30
2010,07,11,03,17,15.30
2010,07,11,03,18,15.30
2010,07,11,03,19,15.40
2010,07,11,03,20,15.40
2010,07,11,03,21,15.40
2010,07,11,03,22,15.40
2010,07,11,03,23,15.40
2010,07,11,03,24,15.40
2010,07,11,03,25,15.40
2010,07,11,03,26,15.40
2010,07,11,03,27,15.40
2010,07,11,03,28,15.40
2010,07,11,03,29,15.40
2010,07,11,03,30,15.40
2010,07,11,03,31,15.30
2010,07,11,03,32,15.30
2010,07,11,03,33,15.30
2010,07,11,03,34,15.30
2010,07,11,03,35,15.40
2010,07,11,03,36,15.40
2010,07,11,03,37,15.40
2010,07,11,03,38,15.40
2010,07,11,03,39,15.40
2010,07,11,03,40,15.50
2010,07,11,03,41,15.50
2010,07,11,03,42,15.50
2010,07,11,03,43,15.60
2010,07,11,03,44,15.60
2010,07,11,03,45,15.60
2010,07,11,03,46,15.60
2010,07,11,03,47,15.60
2010,07,11,03,48,15.60
2010,07,11,03,49,15.60
2010,07,11,03,50,15.60
2010,07,11,03,51,15.50
2010,07,11,03,52,15.50
2010,07,11,03,53,15.40
2010,07,11,03,54,15.40
2010,07,11,03,55,15.30
2010,07,11,03,56,15.30
2010,07,11,03,57,15.30
2010,07,11,03,58,15.20
2010,07,11,03,59,15.20
2010,07,11,04,00,15.20
2010,07,11,04,01,15.10
2010,07,11,04,02,15.00
2010,07,11,04,03,15.00
2010,07,11,04,04,15.00
2010,07,11,04,05,15.00
2010,07,11,04,06,15.00
2010,07,11,04,07,15.00
2010,07,11,04,08,15.00
2010,07,11,04,09,15.00
2010,07,11,04,10,15.00
2010,07,11,04,11,15.00
2010,07,11,04,12,15.00
2010,07,11,04,13,14.90
2010,07,11,04,14,14.90
2010,07,11,04,15,14.90
2010,07,11,04,16,14.90
2010,07,11,04,17,14.80
2010,07,11,04,18,14.80
2010,07,11,04,19,14.80
2010,07,11,04,20,14.80
2010,07,11,04,21,14.80
2010,07,11,04,22,14.80
2010,07,11,04,23,14.80
2010,07,11,04,24,14.80
2010,07,11,04,25,14.80
2010,07,11,04,26,14.80
2010,07,11,04,27,14.80
2010,07,11,04,28,14.80
2010,07,11,04,29,14.80
2010,07,11,04,30,14.70
2010,07,11,04,31,14.70
2010,07,11,04,32,14.70
2010,07,11,04,33,14.70
2010,07,11,04,34,14.70
2010,07,11,04,35,14.70
2010,07,11,04,36,14.70
2010,07,11,04,37,14.70
2010,07,11,04,38,14.70
2010,07,11,04,39,14.70
2010,07,11,04,40,14.70
2010,07,11,04,41,14.70
2010,07,11,04,42,14.70
2010,07,11,04,43,14.70
2010,07,11,04,44,14.70
2010,07,11,04,45,14.70
2010,07,11,04,46,14.70
2010,07,11,04,47,14.70
2010,07,11,04,48,14.70
2010,07,11,04,49,14.70
2010,07,11,04,50,14.70
2010,07,11,04,51,14.70
2010,07,11,04,52,14.80
2010,07,11,04,53,14.80
2010,07,11,04,54,14.80
2010,07,11,04,55,14.80
2010,07,11,04,56,14.80
2010,07,11,04,57,14.80
2010,07,11,04,58,14.70
2010,07,11,04,59,14.70
2010,07,11,05,00,14.70
2010,07,11,05,01,14.70
2010,07,11,05,02,14.70
2010,07,11,05,03,14.70
2010,07,11,05,04,14.70
2010,07,11,05,05,14.70
2010,07,11,05,06,14.60
2010,07,11,05,07,14.60
2010,07,11,05,08,14.60
2010,07,11,05,09,14.60
2010,07,11,05,10,14.60
2010,07,11,05,11,14.60
2010,07,11,05,12,14.60
2010,07,11,05,13,14.60
2010,07,11,05,14,14.60
2010,07,11,05,15,14.60
2010,07,11,05,16,14.60
2010,07,11,05,17,14.60
2010,07,11,05,18,14.60
2010,07,11,05,19,14.50
2010,07,11,05,20,14.50
2010,07,11,05,21,14.50
2010,07,11,05,22,14.50
2010,07,11,05,23,14.50
2010,07,11,05,24,14.50
2010,07,11,05,25,14.50
2010,07,11,05,26,14.50
2010,07,11,05,27,14.50
2010,07,11,05,28,14.50
2010,07,11,05,29,14.50
2010,07,11,05,30,14.50
2010,07,11,05,31,14.50
2010,07,11,05,32,14.50
2010,07,11,05,33,14.50
2010,07,11,05,34,14.50
2010,07,11,05,35,14.50
2010,07,11,05,36,14.50
2010,07,11,05,37,14.50
2010,07,11,05,38,14.50
2010,07,11,05,39,14.50
2010,07,11,05,40,14.50
2010,07,11,05,41,14.50
2010,07,11,05,42,14.50
2010,07,11,05,43,14.50
2010,07,11,05,44,14.50
2010,07,11,05,45,14.50
2010,07,11,05,46,14.50
2010,07,11,05,47,14.50
2010,07,11,05,48,14.50
2010,07,11,05,49,14.50
2010,07,11,05,50,14.50
2010,07,11,05,51,14.50
2010,07,11,05,52,14.50
2010,07,11,05,53,14.50
2010,07,11,05,54,14.50
2010,07,11,05,55,14.50
2010,07,11,05,56,14.50
2010,07,11,05,57,14.50
2010,07,11,05,58,14.40
2010,07,11,05,59,14.40
2010,07,11,06,00,14.40
2010,07,11,06,01,14.40
2010,07,11,06,02,14.40
2010,07,11,06,03,14.40
2010,07,11,06,04,14.40
2010,07,11,06,05,14.40
2010,07,11,06,06,14.40
2010,07,11,06,07,14.50
2010,07,11,06,08,14.50
2010,07,11,06,09,14.50
2010,07,11,06,10,14.50
2010,07,11,06,11,14.50
2010,07,11,06,12,14.50
2010,07,11,06,13,14.50
2010,07,11,06,14,14.50
2010,07,11,06,15,14.50
2010,07,11,06,16,14.50
2010,07,11,06,17,14.60
2010,07,11,06,18,14.50
2010,07,11,06,19,14.50
2010,07,11,06,20,14.60
2010,07,11,06,21,14.50
2010,07,11,06,22,14.60
2010,07,11,06,23,14.60
2010,07,11,06,24,14.50
2010,07,11,06,25,14.50
2010,07,11,06,26,14.50
2010,07,11,06,27,14.50
2010,07,11,06,28,14.50
2010,07,11,06,29,14.50
2010,07,11,06,30,14.50
2010,07,11,06,31,14.50
2010,07,11,06,32,14.50
2010,07,11,06,33,14.50
2010,07,11,06,34,14.40
2010,07,11,06,35,14.40
2010,07,11,06,36,14.40
2010,07,11,06,37,14.40
2010,07,11,06,38,14.40
2010,07,11,06,39,14.50
2010,07,11,06,40,14.50
2010,07,11,06,41,14.60
2010,07,11,06,42,14.60
2010,07,11,06,43,14.70
2010,07,11,06,44,14.70
2010,07,11,06,45,14.80
2010,07,11,06,46,14.90
2010,07,11,06,47,15.00
2010,07,11,06,48,15.00
2010,07,11,06,49,15.00
2010,07,11,06,50,15.10
2010,07,11,06,51,15.20
2010,07,11,06,52,15.30
2010,07,11,06,53,15.40
2010,07,11,06,54,15.50
2010,07,11,06,55,15.60
2010,07,11,06,56,15.60
2010,07,11,06,57,15.70
2010,07,11,06,58,15.80
2010,07,11,06,59,16.00
2010,07,11,07,00,16.10
2010,07,11,07,01,16.20
2010,07,11,07,02,16.30
2010,07,11,07,03,16.30
2010,07,11,07,04,16.40
2010,07,11,07,05,16.50
2010,07,11,07,06,16.60
2010,07,11,07,07,16.70
2010,07,11,07,08,16.80
2010,07,11,07,09,17.00
2010,07,11,07,10,17.10
2010,07,11,07,11,17.20
2010,07,11,07,12,17.30
2010,07,11,07,13,17.40
2010,07,11,07,14,17.50
2010,07,11,07,15,17.60
2010,07,11,07,16,17.70
2010,07,11,07,17,17.80
2010,07,11,07,18,17.90
2010,07,11,07,19,18.00
2010,07,11,07,20,18.10
2010,07,11,07,21,18.10
2010,07,11,07,22,18.20
2010,07,11,07,23,18.20
2010,07,11,07,24,18.30
2010,07,11,07,25,18.30
2010,07,11,07,26,18.30
2010,07,11,07,27,18.40
2010,07,11,07,28,18.40
2010,07,11,07,29,18.50
2010,07,11,07,30,18.60
2010,07,11,07,31,18.70
2010,07,11,07,32,18.80
2010,07,11,07,33,18.90
2010,07,11,07,34,19.00
2010,07,11,07,35,19.10
2010,07,11,07,36,19.20
2010,07,11,07,37,19.20
2010,07,11,07,38,19.30
2010,07,11,07,39,19.40
2010,07,11,07,40,19.40
2010,07,11,07,41,19.50
2010,07,11,07,42,19.50
2010,07,11,07,43,19.60
2010,07,11,07,44,19.70
2010,07,11,07,45,19.70
2010,07,11,07,46,19.80
2010,07,11,07,47,19.80
2010,07,11,07,48,19.90
2010,07,11,07,49,19.90
2010,07,11,07,50,20.00
2010,07,11,07,51,20.00
2010,07,11,07,52,20.10
2010,07,11,07,53,20.20
2010,07,11,07,54,20.20
2010,07,11,07,55,20.20
2010,07,11,07,56,20.20
2010,07,11,07,57,20.20
2010,07,11,07,58,20.20
2010,07,11,07,59,20.20
2010,07,11,08,00,20.30
2010,07,11,08,01,20.30
2010,07,11,08,02,20.30
2010,07,11,08,03,20.30
2010,07,11,08,04,20.40
2010,07,11,08,05,20.40
2010,07,11,08,06,20.50
2010,07,11,08,07,20.60
2010,07,11,08,08,20.60
2010,07,11,08,09,20.70
2010,07,11,08,10,20.70
2010,07,11,08,11,20.80
2010,07,11,08,12,20.90
2010,07,11,08,13,21.00
2010,07,11,08,14,21.10
2010,07,11,08,15,21.20
2010,07,11,08,16,21.30
2010,07,11,08,17,21.40
2010,07,11,08,18,21.50
2010,07,11,08,19,21.60
2010,07,11,08,20,21.60
2010,07,11,08,21,21.70
2010,07,11,08,22,21.80
2010,07,11,08,23,21.80
2010,07,11,08,24,21.80
2010,07,11,08,25,21.90
2010,07,11,08,26,21.90
2010,07,11,08,27,22.00
2010,07,11,08,28,22.00
2010,07,11,08,29,22.10
2010,07,11,08,30,22.10
2010,07,11,08,31,22.20
2010,07,11,08,32,22.20
2010,07,11,08,33,22.30
2010,07,11,08,34,22.30
2010,07,11,08,35,22.30
2010,07,11,08,36,22.40
2010,07,11,08,37,22.40
2010,07,11,08,38,22.50
2010,07,11,08,39,22.60
2010,07,11,08,40,22.60
2010,07,11,08,41,22.60
2010,07,11,08,42,22.60
2010,07,11,08,43,22.60
2010,07,11,08,44,22.60
2010,07,11,08,45,22.60
2010,07,11,08,46,22.70
2010,07,11,08,47,22.80
2010,07,11,08,48,22.80
2010,07,11,08,49,22.80
2010,07,11,08,50,22.90
2010,07,11,08,51,22.90
2010,07,11,08,52,22.80
2010,07,11,08,53,22.80
2010,07,11,08,54,22.80
2010,07,11,08,55,22.70
2010,07,11,08,56,22.70
2010,07,11,08,57,22.70
2010,07,11,08,58,22.80
2010,07,11,08,59,22.80
2010,07,11,09,00,22.80
2010,07,11,09,01,22.80
2010,07,11,09,02,22.80
2010,07,11,09,03,22.80
2010,07,11,09,04,22.80
2010,07,11,09,05,22.90
2010,07,11,09,06,22.90
2010,07,11,09,07,22.90
2010,07,11,09,08,22.90
2010,07,11,09,09,23.00
2010,07,11,09,10,23.00
2010,07,11,09,11,23.00
2010,07,11,09,12,23.00
2010,07,11,09,13,22.90
2010,07,11,09,14,22.90
2010,07,11,09,15,22.90
2010,07,11,09,16,22.80
2010,07,11,09,17,22.80
2010,07,11,09,18,22.80
2010,07,11,09,19,22.80
2010,07,11,09,20,22.80
2010,07,11,09,21,22.70
2010,07,11,09,22,22.80
2010,07,11,09,23,22.80
2010,07,11,09,24,22.90
2010,07,11,09,25,23.00
2010,07,11,09,26,23.10
2010,07,11,09,27,23.20
2010,07,11,09,28,23.30
2010,07,11,09,29,23.40
2010,07,11,09,30,23.40
2010,07,11,09,31,23.50
2010,07,11,09,32,23.60
2010,07,11,09,33,23.70
2010,07,11,09,34,23.60
2010,07,11,09,35,23.60
2010,07,11,09,36,23.50
2010,07,11,09,37,23.30
2010,07,11,09,38,23.10
2010,07,11,09,39,22.90
2010,07,11,09,40,22.70
2010,07,11,09,41,22.70
2010,07,11,09,42,22.70
2010,07,11,09,43,22.70
2010,07,11,09,44,22.80
2010,07,11,09,45,22.70
2010,07,11,09,46,22.70
2010,07,11,09,47,22.70
2010,07,11,09,48,22.60
2010,07,11,09,49,22.60
2010,07,11,09,50,22.50
2010,07,11,09,51,22.50
2010,07,11,09,52,22.50
2010,07,11,09,53,22.60
2010,07,11,09,54,22.60
2010,07,11,09,55,22.60
2010,07,11,09,56,22.50
2010,07,11,09,57,22.50
2010,07,11,09,58,22.40
2010,07,11,09,59,22.40
2010,07,11,10,00,22.50
2010,07,11,10,01,22.50
2010,07,11,10,02,22.60
2010,07,11,10,03,22.80
2010,07,11,10,04,22.90
2010,07,11,10,05,23.00
2010,07,11,10,06,23.00
2010,07,11,10,07,23.10
2010,07,11,10,08,23.10
2010,07,11,10,09,23.10
2010,07,11,10,10,23.10
2010,07,11,10,11,23.10
2010,07,11,10,12,23.20
2010,07,11,10,13,23.30
2010,07,11,10,14,23.30
2010,07,11,10,15,23.30
2010,07,11,10,16,23.20
2010,07,11,10,17,23.20
2010,07,11,10,18,23.30
2010,07,11,10,19,23.30
2010,07,11,10,20,23.20
2010,07,11,10,21,23.20
2010,07,11,10,22,23.20
2010,07,11,10,23,23.30
2010,07,11,10,24,23.30
2010,07,11,10,25,23.30
2010,07,11,10,26,23.30
2010,07,11,10,27,23.30
2010,07,11,10,28,23.30
2010,07,11,10,29,23.30
2010,07,11,10,30,23.40
2010,07,11,10,31,23.40
2010,07,11,10,32,23.50
2010,07,11,10,33,23.60
2010,07,11,10,34,23.60
2010,07,11,10,35,23.60
2010,07,11,10,36,23.60
2010,07,11,10,37,23.50
2010,07,11,10,38,23.50
2010,07,11,10,39,23.40
2010,07,11,10,40,23.40
2010,07,11,10,41,23.50
2010,07,11,10,42,23.60
2010,07,11,10,43,23.70
2010,07,11,10,44,23.90
2010,07,11,10,45,24.00
2010,07,11,10,46,24.10
2010,07,11,10,47,24.00
2010,07,11,10,48,23.90
2010,07,11,10,49,23.80
2010,07,11,10,50,23.80
2010,07,11,10,51,23.80
2010,07,11,10,52,23.80
2010,07,11,10,53,23.80
2010,07,11,10,54,23.90
2010,07,11,10,55,23.90
2010,07,11,10,56,23.90
2010,07,11,10,57,23.90
2010,07,11,10,58,23.90
2010,07,11,10,59,24.00
2010,07,11,11,00,24.10
2010,07,11,11,01,24.10
2010,07,11,11,02,24.20
2010,07,11,11,03,24.30
2010,07,11,11,04,24.30
2010,07,11,11,05,24.40
2010,07,11,11,06,24.40
2010,07,11,11,07,24.40
2010,07,11,11,08,24.40
2010,07,11,11,09,24.40
2010,07,11,11,10,24.40
2010,07,11,11,11,24.40
2010,07,11,11,12,24.40
2010,07,11,11,13,24.40
2010,07,11,11,14,24.40
2010,07,11,11,15,24.40
2010,07,11,11,16,24.40
2010,07,11,11,17,24.50
2010,07,11,11,18,24.50
2010,07,11,11,19,24.50
2010,07,11,11,20,24.50
2010,07,11,11,21,24.60
2010,07,11,11,22,24.70
2010,07,11,11,23,24.80
2010,07,11,11,24,24.90
2010,07,11,11,25,24.90
2010,07,11,11,26,25.00
2010,07,11,11,27,25.10
2010,07,11,11,28,25.10
2010,07,11,11,29,25.00
2010,07,11,11,30,24.90
2010,07,11,11,31,24.70
2010,07,11,11,32,24.60
2010,07,11,11,33,24.40
2010,07,11,11,34,24.30
2010,07,11,11,35,24.40
2010,07,11,11,36,24.40
2010,07,11,11,37,24.40
2010,07,11,11,38,24.40
2010,07,11,11,39,24.40
2010,07,11,11,40,24.30
2010,07,11,11,41,24.20
2010,07,11,11,42,24.00
2010,07,11,11,43,24.00
2010,07,11,11,44,23.90
2010,07,11,11,45,23.90
2010,07,11,11,46,23.80
2010,07,11,11,47,23.70
2010,07,11,11,48,23.60
2010,07,11,11,49,23.60
2010,07,11,11,50,23.80
2010,07,11,11,51,23.90
2010,07,11,11,52,23.90
2010,07,11,11,53,23.90
2010,07,11,11,54,23.90
2010,07,11,11,55,23.90
2010,07,11,11,56,23.70
2010,07,11,11,57,23.70
2010,07,11,11,58,23.70
2010,07,11,11,59,23.80
2010,07,11,12,00,23.70
2010,07,11,12,01,23.60
2010,07,11,12,02,23.60
2010,07,11,12,03,23.60
2010,07,11,12,04,23.50
2010,07,11,12,05,23.50
2010,07,11,12,06,23.50
2010,07,11,12,07,23.50
2010,07,11,12,08,23.50
2010,07,11,12,09,23.40
2010,07,11,12,10,23.50
2010,07,11,12,11,23.60
2010,07,11,12,12,23.50
2010,07,11,12,13,23.60
2010,07,11,12,14,23.60
2010,07,11,12,15,23.40
2010,07,11,12,16,23.40
2010,07,11,12,17,23.40
2010,07,11,12,18,23.50
2010,07,11,12,19,23.60
2010,07,11,12,20,23.70
2010,07,11,12,21,23.70
2010,07,11,12,22,23.70
2010,07,11,12,23,23.70
2010,07,11,12,24,23.80
2010,07,11,12,25,23.70
2010,07,11,12,26,23.80
2010,07,11,12,27,23.80
2010,07,11,12,28,23.80
2010,07,11,12,29,23.80
2010,07,11,12,30,23.70
2010,07,11,12,31,23.70
2010,07,11,12,32,23.60
2010,07,11,12,33,23.60
2010,07,11,12,34,23.60
2010,07,11,12,35,23.50
2010,07,11,12,36,23.50
2010,07,11,12,37,23.60
2010,07,11,12,38,23.60
2010,07,11,12,39,23.60
2010,07,11,12,40,23.50
2010,07,11,12,41,23.60
2010,07,11,12,42,23.60
2010,07,11,12,43,23.80
2010,07,11,12,44,23.80
2010,07,11,12,45,23.80
2010,07,11,12,46,23.80
2010,07,11,12,47,23.70
2010,07,11,12,48,23.50
2010,07,11,12,49,23.40
2010,07,11,12,50,23.40
2010,07,11,12,51,23.50
2010,07,11,12,52,23.50
2010,07,11,12,53,23.30
2010,07,11,12,54,23.30
2010,07,11,12,55,23.40
2010,07,11,12,56,23.40
2010,07,11,12,57,23.40
2010,07,11,12,58,23.40
2010,07,11,12,59,23.40
2010,07,11,13,00,23.40
2010,07,11,13,01,23.40
2010,07,11,13,02,23.40
2010,07,11,13,03,23.40
2010,07,11,13,04,23.50
2010,07,11,13,05,23.60
2010,07,11,13,06,23.50
2010,07,11,13,07,23.50
2010,07,11,13,08,23.50
2010,07,11,13,09,23.60
2010,07,11,13,10,23.60
2010,07,11,13,11,23.50
2010,07,11,13,12,23.50
2010,07,11,13,13,23.50
2010,07,11,13,14,23.40
2010,07,11,13,15,23.40
2010,07,11,13,16,23.40
2010,07,11,13,17,23.50
2010,07,11,13,18,23.60
2010,07,11,13,19,23.70
2010,07,11,13,20,23.90
2010,07,11,13,21,23.90
2010,07,11,13,22,23.90
2010,07,11,13,23,23.80
2010,07,11,13,24,23.70
2010,07,11,13,25,23.70
2010,07,11,13,26,23.70
2010,07,11,13,27,23.70
2010,07,11,13,28,23.60
2010,07,11,13,29,23.60
2010,07,11,13,30,23.60
2010,07,11,13,31,23.80
2010,07,11,13,32,23.70
2010,07,11,13,33,23.60
2010,07,11,13,34,23.50
2010,07,11,13,35,23.50
2010,07,11,13,36,23.40
2010,07,11,13,37,23.30
2010,07,11,13,38,23.20
2010,07,11,13,39,23.10
2010,07,11,13,40,23.00
2010,07,11,13,41,22.90
2010,07,11,13,42,22.90
2010,07,11,13,43,22.80
2010,07,11,13,44,22.80
2010,07,11,13,45,22.90
2010,07,11,13,46,23.00
2010,07,11,13,47,23.20
2010,07,11,13,48,23.20
2010,07,11,13,49,23.20
2010,07,11,13,50,23.20
2010,07,11,13,51,23.30
2010,07,11,13,52,23.40
2010,07,11,13,53,23.50
2010,07,11,13,54,23.60
2010,07,11,13,55,23.70
2010,07,11,13,56,23.80
2010,07,11,13,57,23.90
2010,07,11,13,58,24.00
2010,07,11,13,59,23.90
2010,07,11,14,00,23.80
2010,07,11,14,01,23.70
2010,07,11,14,02,23.70
2010,07,11,14,03,23.70
2010,07,11,14,04,23.70
2010,07,11,14,05,23.60
2010,07,11,14,06,23.50
2010,07,11,14,07,23.40
2010,07,11,14,08,23.40
2010,07,11,14,09,23.50
2010,07,11,14,10,23.60
2010,07,11,14,11,23.70
2010,07,11,14,12,23.80
2010,07,11,14,13,23.90
2010,07,11,14,14,23.90
2010,07,11,14,15,23.80
2010,07,11,14,16,23.80
2010,07,11,14,17,23.90
2010,07,11,14,18,23.90
2010,07,11,14,19,23.90
2010,07,11,14,20,23.80
2010,07,11,14,21,23.70
2010,07,11,14,22,23.70
2010,07,11,14,23,23.70
2010,07,11,14,24,23.70
2010,07,11,14,25,23.80
2010,07,11,14,26,23.70
2010,07,11,14,27,23.70
2010,07,11,14,28,23.70
2010,07,11,14,29,23.70
2010,07,11,14,30,23.80
2010,07,11,14,31,23.80
2010,07,11,14,32,23.80
2010,07,11,14,33,24.00
2010,07,11,14,34,24.10
2010,07,11,14,35,24.10
2010,07,11,14,36,24.10
2010,07,11,14,37,24.10
2010,07,11,14,38,24.00
2010,07,11,14,39,24.00
2010,07,11,14,40,24.10
2010,07,11,14,41,24.20
2010,07,11,14,42,24.30
2010,07,11,14,43,24.40
2010,07,11,14,44,24.50
2010,07,11,14,45,24.60
2010,07,11,14,46,24.60
2010,07,11,14,47,24.60
2010,07,11,14,48,24.70
2010,07,11,14,49,24.70
2010,07,11,14,50,24.70
2010,07,11,14,51,24.70
2010,07,11,14,52,24.70
2010,07,11,14,53,24.70
2010,07,11,14,54,24.60
2010,07,11,14,55,24.70
2010,07,11,14,56,24.70
2010,07,11,14,57,24.70
2010,07,11,14,58,24.70
2010,07,11,14,59,24.60
2010,07,11,15,00,24.40
2010,07,11,15,01,24.40
2010,07,11,15,02,24.40
2010,07,11,15,03,24.40
2010,07,11,15,04,24.40
2010,07,11,15,05,24.30
2010,07,11,15,06,24.20
2010,07,11,15,07,24.10
2010,07,11,15,08,24.10
2010,07,11,15,09,24.10
2010,07,11,15,10,24.00
2010,07,11,15,11,24.10
2010,07,11,15,12,24.10
2010,07,11,15,13,24.10
2010,07,11,15,14,24.00
2010,07,11,15,15,23.90
2010,07,11,15,16,23.90
2010,07,11,15,17,23.90
2010,07,11,15,18,23.80
2010,07,11,15,19,23.80
2010,07,11,15,20,23.80
2010,07,11,15,21,23.80
2010,07,11,15,22,23.70
2010,07,11,15,23,23.70
2010,07,11,15,24,23.80
2010,07,11,15,25,23.80
2010,07,11,15,26,23.80
2010,07,11,15,27,23.80
2010,07,11,15,28,23.90
2010,07,11,15,29,24.10
2010,07,11,15,30,24.10
2010,07,11,15,31,24.20
2010,07,11,15,32,24.30
2010,07,11,15,33,24.40
2010,07,11,15,34,24.40
2010,07,11,15,35,24.30
2010,07,11,15,36,24.10
2010,07,11,15,37,24.00
2010,07,11,15,38,24.00
2010,07,11,15,39,24.10
2010,07,11,15,40,24.10
2010,07,11,15,41,24.10
2010,07,11,15,42,24.10
2010,07,11,15,43,24.10
2010,07,11,15,44,24.00
2010,07,11,15,45,24.10
2010,07,11,15,46,24.10
2010,07,11,15,47,24.00
2010,07,11,15,48,23.80
2010,07,11,15,49,23.80
2010,07,11,15,50,23.80
2010,07,11,15,51,23.80
2010,07,11,15,52,23.60
2010,07,11,15,53,23.50
2010,07,11,15,54,23.30
2010,07,11,15,55,23.20
2010,07,11,15,56,23.10
2010,07,11,15,57,23.10
2010,07,11,15,58,23.10
2010,07,11,15,59,22.90
2010,07,11,16,00,22.80
2010,07,11,16,01,22.80
2010,07,11,16,02,22.80
2010,07,11,16,03,22.80
2010,07,11,16,04,22.80
2010,07,11,16,05,22.80
2010,07,11,16,06,22.70
2010,07,11,16,07,22.70
2010,07,11,16,08,22.60
2010,07,11,16,09,22.70
2010,07,11,16,10,22.70
2010,07,11,16,11,22.60
2010,07,11,16,12,22.50
2010,07,11,16,13,22.50
2010,07,11,16,14,22.50
2010,07,11,16,15,22.50
2010,07,11,16,16,22.50
2010,07,11,16,17,22.40
2010,07,11,16,18,22.40
2010,07,11,16,19,22.50
2010,07,11,16,20,22.60
2010,07,11,16,21,22.50
2010,07,11,16,22,22.40
2010,07,11,16,23,22.50
2010,07,11,16,24,22.60
2010,07,11,16,25,22.70
2010,07,11,16,26,22.70
2010,07,11,16,27,22.80
2010,07,11,16,28,22.80
2010,07,11,16,29,22.80
2010,07,11,16,30,22.80
2010,07,11,16,31,22.80
2010,07,11,16,32,22.80
2010,07,11,16,33,22.90
2010,07,11,16,34,23.00
2010,07,11,16,35,23.00
2010,07,11,16,36,23.10
2010,07,11,16,37,23.10
2010,07,11,16,38,23.00
2010,07,11,16,39,23.00
2010,07,11,16,40,22.90
2010,07,11,16,41,22.90
2010,07,11,16,42,22.80
2010,07,11,16,43,22.70
2010,07,11,16,44,22.60
2010,07,11,16,45,22.60
2010,07,11,16,46,22.60
2010,07,11,16,47,22.60
2010,07,11,16,48,22.60
2010,07,11,16,49,22.50
2010,07,11,16,50,22.50
2010,07,11,16,51,22.50
2010,07,11,16,52,22.40
2010,07,11,16,53,22.50
2010,07,11,16,54,22.50
2010,07,11,16,55,22.50
2010,07,11,16,56,22.30
2010,07,11,16,57,22.20
2010,07,11,16,58,22.10
2010,07,11,16,59,22.00
2010,07,11,17,00,21.80
2010,07,11,17,01,21.70
2010,07,11,17,02,21.70
2010,07,11,17,03,21.60
2010,07,11,17,04,21.40
2010,07,11,17,05,21.40
2010,07,11,17,06,21.40
2010,07,11,17,07,21.30
2010,07,11,17,08,21.30
2010,07,11,17,09,21.30
2010,07,11,17,10,21.30
2010,07,11,17,11,21.30
2010,07,11,17,12,21.40
2010,07,11,17,13,21.40
2010,07,11,17,14,21.40
2010,07,11,17,15,21.30
2010,07,11,17,16,21.20
2010,07,11,17,17,21.20
2010,07,11,17,18,21.40
2010,07,11,17,19,21.50